| DS18B20 | SHTC3 | PZEM-004T | WiFi | ||||||||
|---|---|---|---|---|---|---|---|---|---|---|---|
| ID | Date d/m/Y & Time | data1 สูง | data2 ต่ำ | data3 นอก | temp pcb | hum pcb | Volt | Amp | Watt | rssi | Time |
| 16651 | 28/08/2026 03:32:16 | 29.9  | 30.1  | 26.6  | 30.7  | 66.7  | 232.0  | 0.04  | 4.5  | -62  | 03:32 |
| 16650 | 28/08/2026 03:27:33 | 29.9  | 30.1  | 26.6  | 31.1  | 66.6  | 231.1  | 0.04  | 4.5  | -61  | 03:27 |
| 16649 | 28/08/2026 03:22:50 | 30.0  | 30.1  | 26.6  | 30.8  | 66.7  | 231.8  | 0.04  | 4.5  | -61  | 03:22 |
| 16648 | 28/08/2026 03:18:06 | 30.0  | 30.1  | 26.6  | 31.0  | 66.7  | 230.6  | 0.04  | 4.5  | -61  | 03:18 |
| 16647 | 28/08/2026 03:13:23 | 30.1  | 30.1  | 26.6  | 31.0  | 66.6  | 231.6  | 0.04  | 4.5  | -62  | 03:13 |
| 16646 | 28/08/2026 03:08:39 | 30.1  | 30.2  | 26.7  | 30.8  | 66.7  | 230.5  | 0.04  | 4.5  | -62  | 03:08 |
| 16645 | 28/08/2026 03:03:56 | 30.1  | 30.2  | 26.8  | 31.0  | 66.7  | 233.8  | 0.04  | 4.5  | -62  | 03:03 |
| 16644 | 28/08/2026 02:59:13 | 30.1  | 30.2  | 26.7  | 31.0  | 66.7  | 232.5  | 0.04  | 4.5  | -62  | 02:59 |
| 16643 | 28/08/2026 02:54:29 | 30.1  | 30.2  | 26.7  | 31.1  | 66.6  | 232.5  | 0.04  | 4.5  | -62  | 02:54 |
| 16642 | 28/08/2026 02:49:45 | 30.1  | 30.2  | 26.9  | 31.1  | 66.6  | 230.5  | 0.04  | 4.5  | -62  | 02:49 |
| 16641 | 28/08/2026 02:45:02 | 30.2  | 30.2  | 27.0  | 31.0  | 66.7  | 233.4  | 0.04  | 4.5  | -62  | 02:45 |
| 16640 | 28/08/2026 02:40:19 | 30.2  | 30.3  | 26.7  | 31.1  | 66.5  | 232.3  | 0.04  | 4.5  | -61  | 02:40 |
| 16639 | 28/08/2026 02:35:35 | 30.2  | 30.3  | 26.8  | 31.2  | 66.5  | 230.9  | 0.04  | 4.5  | -61  | 02:35 |
| 16638 | 28/08/2026 02:30:52 | 30.2  | 30.4  | 26.9  | 31.1  | 66.5  | 231.1  | 0.04  | 4.5  | -61  | 02:30 |
| 16637 | 28/08/2026 02:26:09 | 30.2  | 30.4  | 27.0  | 31.4  | 66.6  | 228.0  | 0.04  | 4.5  | -62  | 02:26 |
| 16636 | 28/08/2026 02:21:26 | 30.3  | 30.4  | 26.9  | 31.4  | 66.5  | 230.8  | 0.04  | 4.5  | -62  | 02:21 |
| 16635 | 28/08/2026 02:16:42 | 30.3  | 30.4  | 26.9  | 31.4  | 66.6  | 227.9  | 0.04  | 4.5  | -61  | 02:16 |
| 16634 | 28/08/2026 02:11:59 | 30.3  | 30.4  | 26.9  | 31.3  | 66.4  | 230.5  | 0.04  | 4.5  | -61  | 02:11 |
| 16633 | 28/08/2026 02:07:15 | 30.4  | 30.4  | 26.9  | 31.4  | 66.6  | 231.1  | 0.04  | 4.5  | -62  | 02:07 |
| 16632 | 28/08/2026 02:02:32 | 30.4  | 30.5  | 26.9  | 31.1  | 66.6  | 227.5  | 0.04  | 4.5  | -62  | 02:02 |
| 16631 | 28/08/2026 01:57:48 | 30.4  | 30.5  | 27.0  | 31.5  | 66.4  | 231.0  | 0.04  | 4.5  | -62  | 01:57 |
| 16630 | 28/08/2026 01:53:05 | 30.4  | 30.6  | 27.0  | 31.5  | 66.4  | 229.2  | 0.04  | 4.5  | -62  | 01:53 |
| 16629 | 28/08/2026 01:48:21 | 30.4  | 30.6  | 27.0  | 31.4  | 66.4  | 229.3  | 0.04  | 4.5  | -62  | 01:48 |
| 16628 | 28/08/2026 01:43:38 | 30.5  | 30.6  | 27.2  | 31.6  | 66.4  | 229.7  | 0.04  | 4.5  | -61  | 01:43 |